TimePDT,TemperatureF,Dew PointF,Humidity,Sea Level PressureIn,VisibilityMPH,Wind Direction,Wind SpeedMPH,Gust SpeedMPH,PrecipitationIn,Events,Conditions,WindDirDegrees,DateUTC
12:53 AM,46.9,44.1,90,30.01,10.0,East,3.5,-,N/A,,Clear,100,2012-10-10 07:53:00
1:53 AM,46.0,43.0,89,30.02,10.0,East,3.5,-,N/A,,Clear,90,2012-10-10 08:53:00
2:53 AM,46.0,42.1,86,30.02,10.0,ESE,3.5,-,N/A,,Clear,110,2012-10-10 09:53:00
3:53 AM,44.1,42.1,93,30.02,10.0,Calm,Calm,-,N/A,,Clear,0,2012-10-10 10:53:00
4:53 AM,39.9,37.9,93,30.02,2.0,Calm,Calm,-,N/A,,Clear,0,2012-10-10 11:53:00
5:00 AM,42.8,39.2,87,30.01,1.8,Calm,Calm,-,N/A,,Clear,0,2012-10-10 12:00:00
5:03 AM,42.8,39.2,87,30.02,3.0,Calm,Calm,-,N/A,,Clear,0,2012-10-10 12:03:00
5:53 AM,41.0,39.0,93,30.01,10.0,Calm,Calm,-,N/A,,Clear,0,2012-10-10 12:53:00
6:53 AM,41.0,39.0,93,30.03,10.0,Calm,Calm,-,N/A,,Partly Cloudy,0,2012-10-10 13:53:00
7:24 AM,41.0,39.2,93,30.03,8.0,Calm,Calm,-,N/A,,Mostly Cloudy,0,2012-10-10 14:24:00
7:53 AM,45.0,42.1,90,30.04,10.0,Calm,Calm,-,N/A,,Overcast,0,2012-10-10 14:53:00
8:53 AM,48.0,43.0,83,30.04,10.0,Calm,Calm,-,N/A,,Overcast,0,2012-10-10 15:53:00
9:53 AM,50.0,46.0,86,30.03,4.0,WSW,3.5,-,N/A,,Mostly Cloudy,250,2012-10-10 16:53:00
10:53 AM,53.1,46.9,80,30.02,5.0,Variable,4.6,-,N/A,,Haze,0,2012-10-10 17:53:00
11:53 AM,54.0,46.9,77,30.01,5.0,West,4.6,-,N/A,,Haze,270,2012-10-10 18:53:00
12:53 PM,57.9,48.0,70,29.99,7.0,SW,6.9,-,N/A,,Clear,230,2012-10-10 19:53:00
1:53 PM,64.0,48.9,58,29.96,9.0,Variable,3.5,-,N/A,,Clear,0,2012-10-10 20:53:00
2:53 PM,66.0,48.0,52,29.94,10.0,WSW,6.9,-,N/A,,Clear,250,2012-10-10 21:53:00
3:53 PM,66.9,48.9,52,29.92,10.0,Calm,Calm,-,N/A,,Clear,0,2012-10-10 22:53:00
4:53 PM,66.9,48.9,52,29.91,10.0,Calm,Calm,-,N/A,,Clear,0,2012-10-10 23:53:00
5:53 PM,66.0,48.0,52,29.91,10.0,NNW,3.5,-,N/A,,Clear,340,2012-10-11 00:53:00
6:53 PM,62.1,48.0,60,29.91,10.0,Calm,Calm,-,N/A,,Clear,0,2012-10-11 01:53:00
7:53 PM,57.0,48.0,72,29.93,10.0,West,3.5,-,N/A,,Clear,280,2012-10-11 02:53:00
8:53 PM,54.0,46.9,77,29.94,10.0,WSW,3.5,-,N/A,,Clear,250,2012-10-11 03:53:00
9:53 PM,54.0,46.9,77,29.94,10.0,Calm,Calm,-,N/A,,Clear,0,2012-10-11 04:53:00
10:53 PM,48.0,45.0,89,29.95,10.0,Calm,Calm,-,N/A,,Clear,0,2012-10-11 05:53:00
11:53 PM,46.9,44.1,90,29.94,5.0,Calm,Calm,-,N/A,,Clear,0,2012-10-11 06:53:00